Time,TemperatureF,DewpointF,PressureIn,WindDirection,WindDirectionDegrees,WindSpeedMPH,WindSpeedGustMPH,Humidity,HourlyPrecipIn,Conditions,Clouds,dailyrainin,SolarRadiationWatts/m^2,SoftwareType,DateUTC
2013-02-12 00:00:00,25.8,21.1,30.20,WNW,291,8.0,11.0,82,0.00,,,0.00,0,Wunderground v.1.15,2013-02-12 06:00:00,
2013-02-12 00:10:00,25.9,21.2,30.20,West,263,6.0,8.0,82,0.00,,,0.00,0,Wunderground v.1.15,2013-02-12 06:10:00,
2013-02-12 00:20:00,25.9,21.2,30.20,West,271,6.0,6.0,82,0.00,,,0.00,0,Wunderground v.1.15,2013-02-12 06:20:00,
2013-02-12 00:30:00,26.0,21.3,30.20,NW,313,6.0,6.0,82,0.00,,,0.00,0,Wunderground v.1.15,2013-02-12 06:30:00,
2013-02-12 00:40:00,26.0,21.5,30.20,WNW,303,6.0,6.0,83,0.00,,,0.00,0,Wunderground v.1.15,2013-02-12 06:40:00,
2013-02-12 00:50:00,26.1,21.6,30.20,WNW,298,5.0,5.0,83,0.00,,,0.00,0,Wunderground v.1.15,2013-02-12 06:50:00,
2013-02-12 01:00:00,26.1,21.4,30.20,NW,313,5.0,5.0,82,0.00,,,0.00,0,Wunderground v.1.15,2013-02-12 07:00:00,
2013-02-12 01:10:00,26.2,21.5,30.20,WNW,283,7.0,7.0,82,0.00,,,0.00,0,Wunderground v.1.15,2013-02-12 07:10:00,
2013-02-12 01:20:00,26.2,21.5,30.20,WNW,284,6.0,7.0,82,0.00,,,0.00,0,Wunderground v.1.15,2013-02-12 07:20:00,
2013-02-12 02:20:00,-999.9,-99.9,30.19,WSW,251,4.0,4.0,255,-99.99,,,0.00,,Wunderground v.1.15,2013-02-12 08:20:00,
2013-02-12 02:30:00,25.7,21.3,30.18,West,268,4.0,4.0,83,0.00,,,0.00,0,Wunderground v.1.15,2013-02-12 08:30:00,
2013-02-12 02:40:00,25.4,21.0,30.18,WSW,240,4.0,4.0,83,0.00,,,0.00,0,Wunderground v.1.15,2013-02-12 08:40:00,
2013-02-12 02:50:00,25.1,20.7,30.18,WSW,242,4.0,4.0,83,0.00,,,0.00,0,Wunderground v.1.15,2013-02-12 08:50:00,
2013-02-12 03:00:00,24.7,20.3,30.18,WSW,239,3.0,4.0,83,0.00,,,0.00,0,Wunderground v.1.15,2013-02-12 09:00:00,
2013-02-12 03:10:00,24.3,20.2,30.17,WSW,240,4.0,4.0,84,0.00,,,0.00,0,Wunderground v.1.15,2013-02-12 09:10:00,
2013-02-12 03:20:00,23.9,19.8,30.17,SW,229,4.0,4.0,84,0.00,,,0.00,0,Wunderground v.1.15,2013-02-12 09:20:00,
2013-02-12 03:30:00,23.7,19.9,30.17,SSW,192,4.0,4.0,85,0.00,,,0.00,0,Wunderground v.1.15,2013-02-12 09:30:00,
2013-02-12 03:40:00,23.3,19.5,30.16,SSW,198,4.0,4.0,85,0.00,,,0.00,0,Wunderground v.1.15,2013-02-12 09:40:00,
2013-02-12 03:50:00,22.9,19.3,30.15,SSW,210,4.0,4.0,86,0.00,,,0.00,0,Wunderground v.1.15,2013-02-12 09:50:00,
2013-02-12 04:00:00,22.7,19.1,30.15,SW,217,4.0,5.0,86,0.00,,,0.00,0,Wunderground v.1.15,2013-02-12 10:00:00,
2013-02-12 04:10:00,22.5,18.9,30.14,South,185,4.0,5.0,86,0.00,,,0.00,0,Wunderground v.1.15,2013-02-12 10:10:00,
2013-02-12 04:20:00,22.3,18.7,30.13,SW,217,4.0,4.0,86,0.00,,,0.00,0,Wunderground v.1.15,2013-02-12 10:20:00,
2013-02-12 04:30:00,22.0,18.7,30.14,SSW,196,4.0,4.0,87,0.00,,,0.00,0,Wunderground v.1.15,2013-02-12 10:30:00,
2013-02-12 04:40:00,21.4,18.1,30.13,SSW,194,4.0,4.0,87,0.00,,,0.00,0,Wunderground v.1.15,2013-02-12 10:40:00,
2013-02-12 04:50:00,20.9,17.6,30.13,South,187,4.0,4.0,87,0.00,,,0.00,0,Wunderground v.1.15,2013-02-12 10:50:00,
2013-02-12 05:00:00,20.5,17.5,30.12,South,177,3.0,3.0,88,0.00,,,0.00,0,Wunderground v.1.15,2013-02-12 11:00:00,
2013-02-12 05:10:00,20.6,17.9,30.13,South,175,3.0,3.0,89,0.00,,,0.00,0,Wunderground v.1.15,2013-02-12 11:10:00,
2013-02-12 05:20:00,20.5,17.8,30.13,South,170,4.0,4.0,89,0.00,,,0.00,0,Wunderground v.1.15,2013-02-12 11:20:00,
2013-02-12 05:30:00,20.3,17.6,30.14,South,173,4.0,5.0,89,0.00,,,0.00,0,Wunderground v.1.15,2013-02-12 11:30:00,
2013-02-12 05:40:00,20.1,17.4,30.15,South,178,6.0,6.0,89,0.00,,,0.00,0,Wunderground v.1.15,2013-02-12 11:40:00,
2013-02-12 05:50:00,20.7,18.0,30.14,SSW,199,6.0,6.0,89,0.00,,,0.00,0,Wunderground v.1.15,2013-02-12 11:50:00,
2013-02-12 06:00:00,20.8,17.8,30.14,SSW,201,4.0,4.0,88,0.00,,,0.00,0,Wunderground v.1.15,2013-02-12 12:00:00,
2013-02-12 06:10:00,20.7,17.7,30.13,SSW,205,4.0,5.0,88,0.00,,,0.00,0,Wunderground v.1.15,2013-02-12 12:10:00,
2013-02-12 06:20:00,20.5,17.5,30.13,South,184,4.0,4.0,88,0.00,,,0.00,0,Wunderground v.1.15,2013-02-12 12:20:00,
2013-02-12 06:30:00,20.0,17.0,30.13,SSW,194,5.0,7.0,88,0.00,,,0.00,0,Wunderground v.1.15,2013-02-12 12:30:00,
2013-02-12 06:40:00,20.0,17.0,30.14,South,190,7.0,11.0,88,0.00,,,0.00,0,Wunderground v.1.15,2013-02-12 12:40:00,
2013-02-12 06:50:00,20.2,17.2,30.13,SSW,194,8.0,8.0,88,0.00,,,0.00,0,Wunderground v.1.15,2013-02-12 12:50:00,
2013-02-12 07:00:00,20.5,17.8,30.13,South,185,8.0,8.0,89,0.00,,,0.00,0,Wunderground v.1.15,2013-02-12 13:00:00,
2013-02-12 07:10:00,20.8,17.8,30.13,WSW,240,6.0,8.0,88,0.00,,,0.00,0,Wunderground v.1.15,2013-02-12 13:10:00,
2013-02-12 07:20:00,21.0,18.0,30.13,SSW,194,7.0,7.0,88,0.00,,,0.00,5,Wunderground v.1.15,2013-02-12 13:20:00,
2013-02-12 07:30:00,21.0,17.7,30.12,South,179,7.0,7.0,87,0.00,,,0.00,11,Wunderground v.1.15,2013-02-12 13:30:00,
2013-02-12 07:40:00,21.4,18.1,30.12,SSW,194,6.0,6.0,87,0.00,,,0.00,16,Wunderground v.1.15,2013-02-12 13:40:00,
2013-02-12 07:50:00,21.7,18.4,30.12,SSW,198,6.0,6.0,87,0.00,,,0.00,19,Wunderground v.1.15,2013-02-12 13:50:00,
2013-02-12 08:00:00,22.1,18.8,30.12,South,184,6.0,9.0,87,0.00,,,0.00,25,Wunderground v.1.15,2013-02-12 14:00:00,
2013-02-12 08:10:00,22.1,18.8,30.12,South,187,6.0,7.0,87,0.00,,,0.00,25,Wunderground v.1.15,2013-02-12 14:10:00,
2013-02-12 08:20:00,-999.9,-99.9,30.11,SSW,213,7.0,7.0,255,-99.99,,,0.00,,Wunderground v.1.15,2013-02-12 14:20:00,
2013-02-12 08:30:00,-999.9,-99.9,30.11,South,180,7.0,7.0,255,-99.99,,,0.00,,Wunderground v.1.15,2013-02-12 14:30:00,
2013-02-12 08:40:00,-999.9,-99.9,30.10,SSW,204,7.0,7.0,255,-99.99,,,0.00,,Wunderground v.1.15,2013-02-12 14:40:00,
2013-02-12 08:50:00,24.8,21.2,30.10,South,176,7.0,11.0,86,0.00,,,0.00,130,Wunderground v.1.15,2013-02-12 14:50:00,
2013-02-12 09:00:00,25.6,22.0,30.10,SSW,208,8.0,8.0,86,0.00,,,0.00,199,Wunderground v.1.15,2013-02-12 15:00:00,
2013-02-12 09:10:00,26.7,22.8,30.09,SSW,213,7.0,7.0,85,0.00,,,0.00,176,Wunderground v.1.15,2013-02-12 15:10:00,
2013-02-12 09:20:00,27.3,23.1,30.09,SSE,167,8.0,8.0,84,0.00,,,0.00,190,Wunderground v.1.15,2013-02-12 15:20:00,
2013-02-12 09:30:00,28.2,23.7,30.08,SSE,156,8.0,8.0,83,0.00,,,0.00,255,Wunderground v.1.15,2013-02-12 15:30:00,
2013-02-12 09:40:00,29.2,24.4,30.08,South,190,8.0,8.0,82,0.00,,,0.00,322,Wunderground v.1.15,2013-02-12 15:40:00,
2013-02-12 09:50:00,30.2,25.1,30.08,SW,225,8.0,8.0,81,0.00,,,0.00,323,Wunderground v.1.15,2013-02-12 15:50:00,
2013-02-12 10:00:00,31.6,25.8,30.08,WSW,246,7.0,7.0,79,0.00,,,0.00,225,Wunderground v.1.15,2013-02-12 16:00:00,
2013-02-12 10:10:00,32.4,25.7,30.08,SW,233,9.0,10.0,76,0.00,,,0.00,330,Wunderground v.1.15,2013-02-12 16:10:00,
2013-02-12 10:20:00,33.4,26.0,30.08,SW,227,9.0,11.0,74,0.00,,,0.00,427,Wunderground v.1.15,2013-02-12 16:20:00,
2013-02-12 10:30:00,33.5,25.8,30.08,SW,219,9.0,9.0,73,0.00,,,0.00,445,Wunderground v.1.15,2013-02-12 16:30:00,
2013-02-12 10:40:00,34.0,25.9,30.08,SW,220,10.0,10.0,72,0.00,,,0.00,480,Wunderground v.1.15,2013-02-12 16:40:00,
2013-02-12 10:50:00,35.0,26.5,30.08,SW,230,9.0,9.0,71,0.00,,,0.00,497,Wunderground v.1.15,2013-02-12 16:50:00,
2013-02-12 10:59:00,36.5,27.3,30.07,SW,221,9.0,9.0,69,0.00,,,0.00,515,Wunderground v.1.15,2013-02-12 16:59:00,
2013-02-12 11:10:00,37.0,27.4,30.07,WSW,250,10.0,10.0,68,0.00,,,0.00,533,Wunderground v.1.15,2013-02-12 17:10:00,
2013-02-12 11:20:00,37.9,25.6,30.07,SW,218,12.0,12.0,61,0.00,,,0.00,547,Wunderground v.1.15,2013-02-12 17:20:00,
2013-02-12 11:30:00,38.5,25.4,30.06,WSW,256,13.0,13.0,59,0.00,,,0.00,561,Wunderground v.1.15,2013-02-12 17:30:00,
2013-02-12 11:40:00,38.4,25.3,30.06,SW,232,12.0,17.0,59,0.00,,,0.00,571,Wunderground v.1.15,2013-02-12 17:40:00,
2013-02-12 11:50:00,39.1,26.8,30.06,WSW,239,14.0,17.0,61,0.00,,,0.00,577,Wunderground v.1.15,2013-02-12 17:50:00,
2013-02-12 12:00:00,39.7,26.1,30.06,WSW,245,13.0,13.0,58,0.00,,,0.00,589,Wunderground v.1.15,2013-02-12 18:00:00,
2013-02-12 12:10:00,39.8,25.4,30.05,SW,227,13.0,14.0,56,0.00,,,0.00,596,Wunderground v.1.15,2013-02-12 18:10:00,
2013-02-12 12:20:00,40.7,26.6,30.05,WSW,243,12.0,12.0,57,0.00,,,0.00,599,Wunderground v.1.15,2013-02-12 18:20:00,
2013-02-12 12:30:00,40.7,27.1,30.04,WSW,250,11.0,14.0,58,0.00,,,0.00,601,Wunderground v.1.15,2013-02-12 18:30:00,
2013-02-12 12:40:00,41.3,28.0,30.03,WSW,254,12.0,21.0,59,0.00,,,0.00,601,Wunderground v.1.15,2013-02-12 18:40:00,
2013-02-12 12:50:00,41.5,27.4,30.02,SW,223,12.0,12.0,57,0.00,,,0.00,599,Wunderground v.1.15,2013-02-12 18:50:00,
2013-02-12 13:00:00,41.7,28.0,30.02,SW,232,12.0,12.0,58,0.00,,,0.00,596,Wunderground v.1.15,2013-02-12 19:00:00,
2013-02-12 13:10:00,42.4,27.4,30.02,WSW,250,11.0,11.0,55,0.00,,,0.00,587,Wunderground v.1.15,2013-02-12 19:10:00,
2013-02-12 13:20:00,42.5,27.5,30.01,WNW,288,12.0,14.0,55,0.00,,,0.00,585,Wunderground v.1.15,2013-02-12 19:20:00,
2013-02-12 13:30:00,42.9,28.3,30.00,West,281,12.0,14.0,56,0.00,,,0.00,577,Wunderground v.1.15,2013-02-12 19:30:00,
2013-02-12 13:40:00,43.2,27.7,30.00,West,275,10.0,10.0,54,0.00,,,0.00,570,Wunderground v.1.15,2013-02-12 19:40:00,
2013-02-12 13:49:00,44.0,28.4,30.00,WSW,252,10.0,12.0,54,0.00,,,0.00,559,Wunderground v.1.15,2013-02-12 19:49:00,
2013-02-12 14:00:00,43.9,24.9,29.99,WSW,240,11.0,12.0,47,0.00,,,0.00,545,Wunderground v.1.15,2013-02-12 20:00:00,
2013-02-12 14:10:00,44.0,25.5,29.99,West,268,10.0,14.0,48,0.00,,,0.00,527,Wunderground v.1.15,2013-02-12 20:10:00,
2013-02-12 14:20:00,43.6,25.7,29.98,West,269,10.0,10.0,49,0.00,,,0.00,519,Wunderground v.1.15,2013-02-12 20:20:00,
2013-02-12 14:30:00,43.6,25.7,29.98,West,278,11.0,14.0,49,0.00,,,0.00,538,Wunderground v.1.15,2013-02-12 20:30:00,
2013-02-12 14:40:00,43.5,26.6,29.98,WNW,287,11.0,11.0,51,0.00,,,0.00,480,Wunderground v.1.15,2013-02-12 20:40:00,
2013-02-12 14:50:00,43.4,26.0,29.98,WNW,288,10.0,10.0,50,0.00,,,0.00,325,Wunderground v.1.15,2013-02-12 20:50:00,
2013-02-12 15:00:00,43.8,25.9,29.98,WNW,289,10.0,13.0,49,0.00,,,0.00,401,Wunderground v.1.15,2013-02-12 21:00:00,
2013-02-12 15:10:00,43.3,27.3,29.98,West,278,10.0,10.0,53,0.00,,,0.00,410,Wunderground v.1.15,2013-02-12 21:10:00,
2013-02-12 15:20:00,43.8,27.3,29.97,West,281,8.0,10.0,52,0.00,,,0.00,318,Wunderground v.1.15,2013-02-12 21:20:00,
2013-02-12 15:30:00,43.9,26.4,29.97,WNW,287,9.0,14.0,50,0.00,,,0.00,178,Wunderground v.1.15,2013-02-12 21:30:00,
2013-02-12 15:40:00,43.8,26.3,29.97,West,261,10.0,15.0,50,0.00,,,0.00,47,Wunderground v.1.15,2013-02-12 21:40:00,
2013-02-12 15:50:00,43.9,26.0,29.97,NW,313,10.0,12.0,49,0.00,,,0.00,171,Wunderground v.1.15,2013-02-12 21:50:00,
2013-02-12 15:59:00,44.1,27.1,29.96,WNW,297,8.0,8.0,51,0.00,,,0.00,44,Wunderground v.1.15,2013-02-12 21:59:00,
2013-02-12 16:10:00,43.9,27.4,29.96,WSW,253,7.0,7.0,52,0.00,,,0.00,171,Wunderground v.1.15,2013-02-12 22:10:00,
2013-02-12 16:20:00,43.7,27.2,29.95,WSW,256,7.0,8.0,52,0.00,,,0.00,58,Wunderground v.1.15,2013-02-12 22:20:00,
2013-02-12 16:30:00,43.7,27.7,29.95,WSW,249,6.0,6.0,53,0.00,,,0.00,58,Wunderground v.1.15,2013-02-12 22:30:00,
2013-02-12 16:40:00,43.8,28.7,29.94,West,263,6.0,6.0,55,0.00,,,0.00,60,Wunderground v.1.15,2013-02-12 22:40:00,
2013-02-12 16:50:00,43.4,27.4,29.94,West,269,5.0,10.0,53,0.00,,,0.00,33,Wunderground v.1.15,2013-02-12 22:50:00,
2013-02-12 17:00:00,42.7,25.3,29.94,West,275,6.0,8.0,50,0.00,,,0.00,26,Wunderground v.1.15,2013-02-12 23:00:00,
2013-02-12 17:10:00,42.5,25.1,29.94,West,269,5.0,5.0,50,0.00,,,0.00,23,Wunderground v.1.15,2013-02-12 23:10:00,
2013-02-12 17:20:00,41.4,26.0,29.94,WNW,295,5.0,5.0,54,0.00,,,0.00,19,Wunderground v.1.15,2013-02-12 23:20:00,
2013-02-12 17:30:00,40.9,26.0,29.94,West,263,4.0,7.0,55,0.00,,,0.00,14,Wunderground v.1.15,2013-02-12 23:30:00,
2013-02-12 17:40:00,40.0,26.0,29.94,WNW,298,4.0,4.0,57,0.00,,,0.00,9,Wunderground v.1.15,2013-02-12 23:40:00,
2013-02-12 17:50:00,39.3,26.2,29.94,WNW,292,2.0,2.0,59,0.00,,,0.00,0,Wunderground v.1.15,2013-02-12 23:50:00,
2013-02-12 18:00:00,38.7,25.6,29.94,West,278,2.0,2.0,59,0.00,,,0.00,0,Wunderground v.1.15,2013-02-13 00:00:00,
2013-02-12 18:10:00,38.2,25.5,29.94,WNW,299,3.0,3.0,60,0.00,,,0.00,0,Wunderground v.1.15,2013-02-13 00:10:00,
2013-02-12 18:20:00,37.7,25.8,29.95,WNW,296,2.0,2.0,62,0.00,,,0.00,0,Wunderground v.1.15,2013-02-13 00:20:00,
2013-02-12 18:30:00,37.4,25.6,29.94,WNW,286,2.0,2.0,62,0.00,,,0.00,0,Wunderground v.1.15,2013-02-13 00:30:00,
2013-02-12 18:40:00,36.8,25.4,29.95,WNW,289,2.0,2.0,63,0.00,,,0.00,0,Wunderground v.1.15,2013-02-13 00:40:00,
2013-02-12 18:50:00,36.4,25.4,29.95,WNW,295,2.0,3.0,64,0.00,,,0.00,0,Wunderground v.1.15,2013-02-13 00:50:00,
2013-02-12 19:00:00,35.6,25.0,29.95,WNW,300,1.0,1.0,65,0.00,,,0.00,0,Wunderground v.1.15,2013-02-13 01:00:00,
2013-02-12 19:10:00,35.4,25.2,29.95,WNW,302,1.0,1.0,66,0.00,,,0.00,0,Wunderground v.1.15,2013-02-13 01:10:00,
2013-02-12 19:20:00,34.6,25.1,29.95,WNW,302,0.0,0.0,68,0.00,,,0.00,0,Wunderground v.1.15,2013-02-13 01:20:00,
2013-02-12 19:30:00,34.5,25.0,29.95,WNW,296,1.0,2.0,68,0.00,,,0.00,0,Wunderground v.1.15,2013-02-13 01:30:00,
2013-02-12 19:40:00,33.8,24.7,29.95,NW,311,1.0,1.0,69,0.00,,,0.00,0,Wunderground v.1.15,2013-02-13 01:40:00,
2013-02-12 19:50:00,33.5,24.8,29.96,NW,313,2.0,2.0,70,0.00,,,0.00,0,Wunderground v.1.15,2013-02-13 01:50:00,
2013-02-12 19:59:00,33.8,25.4,29.95,NW,309,2.0,2.0,71,0.00,,,0.00,0,Wunderground v.1.15,2013-02-13 01:59:00,
2013-02-12 20:10:00,33.4,25.7,29.95,NW,307,4.0,4.0,73,0.00,,,0.00,0,Wunderground v.1.15,2013-02-13 02:10:00,
2013-02-12 20:20:00,33.5,26.1,29.95,North,349,5.0,6.0,74,0.00,,,0.00,0,Wunderground v.1.15,2013-02-13 02:20:00,
2013-02-12 20:30:00,33.3,26.5,29.96,NW,319,5.0,8.0,76,0.00,,,0.00,0,Wunderground v.1.15,2013-02-13 02:30:00,
2013-02-12 20:40:00,33.1,26.7,29.95,NW,307,6.0,6.0,77,0.00,,,0.00,0,Wunderground v.1.15,2013-02-13 02:40:00,
2013-02-12 20:50:00,32.7,26.6,29.95,NW,325,5.0,5.0,78,0.00,,,0.00,0,Wunderground v.1.15,2013-02-13 02:50:00,
2013-02-12 21:00:00,32.7,26.6,29.95,NW,317,6.0,6.0,78,0.00,,,0.00,0,Wunderground v.1.15,2013-02-13 03:00:00,
2013-02-12 21:10:00,32.2,26.4,29.95,NNW,340,5.0,5.0,79,0.00,,,0.00,0,Wunderground v.1.15,2013-02-13 03:10:00,
2013-02-12 21:20:00,31.6,26.4,29.95,NW,314,5.0,7.0,81,0.00,,,0.00,0,Wunderground v.1.15,2013-02-13 03:20:00,
2013-02-12 21:30:00,31.6,26.4,29.95,NNW,328,4.0,5.0,81,0.00,,,0.00,0,Wunderground v.1.15,2013-02-13 03:30:00,
2013-02-12 21:40:00,31.1,26.0,29.95,NW,315,3.0,4.0,81,0.00,,,0.00,0,Wunderground v.1.15,2013-02-13 03:40:00,
2013-02-12 21:50:00,30.7,25.9,29.94,NW,324,2.0,2.0,82,0.00,,,0.00,0,Wunderground v.1.15,2013-02-13 03:50:00,
2013-02-12 22:00:00,30.2,25.4,29.94,WNW,301,1.0,2.0,82,0.00,,,0.00,0,Wunderground v.1.15,2013-02-13 04:00:00,
2013-02-12 22:10:00,29.8,25.3,29.94,WNW,287,2.0,2.0,83,0.00,,,0.00,0,Wunderground v.1.15,2013-02-13 04:10:00,
2013-02-12 22:20:00,29.4,25.2,29.94,WNW,290,2.0,3.0,84,0.00,,,0.00,0,Wunderground v.1.15,2013-02-13 04:20:00,
2013-02-12 22:30:00,29.7,25.5,29.93,WNW,296,3.0,3.0,84,0.00,,,0.00,0,Wunderground v.1.15,2013-02-13 04:30:00,
2013-02-12 22:40:00,29.7,25.5,29.93,West,266,3.0,3.0,84,0.00,,,0.00,0,Wunderground v.1.15,2013-02-13 04:40:00,
2013-02-12 22:50:00,29.6,25.4,29.93,WSW,255,3.0,3.0,84,0.00,,,0.00,0,Wunderground v.1.15,2013-02-13 04:50:00,
2013-02-12 23:00:00,29.5,25.3,29.93,West,261,3.0,3.0,84,0.00,,,0.00,0,Wunderground v.1.15,2013-02-13 05:00:00,
2013-02-12 23:10:00,29.2,25.0,29.93,West,276,3.0,4.0,84,0.00,,,0.00,0,Wunderground v.1.15,2013-02-13 05:10:00,
2013-02-12 23:20:00,29.1,24.9,29.93,WNW,298,4.0,4.0,84,0.00,,,0.00,0,Wunderground v.1.15,2013-02-13 05:20:00,
2013-02-12 23:30:00,28.6,24.7,29.93,WNW,298,5.0,5.0,85,0.00,,,0.00,0,Wunderground v.1.15,2013-02-13 05:30:00,
2013-02-12 23:40:00,28.3,24.4,29.93,WNW,294,4.0,5.0,85,0.00,,,0.00,0,Wunderground v.1.15,2013-02-13 05:40:00,
2013-02-12 23:50:00,28.4,24.5,29.93,WNW,290,4.0,5.0,85,0.00,,,0.00,0,Wunderground v.1.15,2013-02-13 05:50:00,